[[{"header":{"parameterUnit":"m.s-1","parameterCategory":1,"la1":30.2991,"la2":30.254,"lo1":-89.0895,"lo2":-89.0444,"dy":0.0017,"dx":0.0017,"nx":28,"ny":28,"refTime":"2025-01-15T03:00:00:Z","depth":0,"parameterNumber":2,"parameterNumberName":"U-component_of_WINDS"},"data":[0,0,0,0,0,0,0,0,0,0,0,0,0,0,0,0,0,0,0,0,0,0,0,0,0,0,0,0,0,0,0,0,0,0,0,0,0,0,0,0,0,0,0,0,0,0,0,0,0,0,0,0,0,0,0,0,0,0,1.2496,1.2497,0,1.2564,1.2565,1.2566,1.2575,1.2574,1.2573,1.2573,1.2644,1.2647,1.2649,0,0,0,0,0,0,0,0,0,0,0,0,0,1.2375,1.2377,1.2496,1.2497,1.2498,1.2564,1.2565,1.2566,1.2575,1.2574,1.2573,1.2572,1.2644,1.2647,1.265,0,0,0,0,0,0,0,0,0,0,0,0,0,1.2434,1.2378,1.2496,1.251,1.2512,1.2564,1.2565,1.2566,1.2575,1.2574,1.2573,1.2572,1.2643,1.2646,1.265,1.2693,0,0,1.2662,1.2663,0,0,0,0,0,0,0,0,1.243,1.2438,1.2507,1.2509,1.2511,1.256,1.2549,1.2609,1.2575,1.2551,1.2573,1.2572,1.2617,1.2623,1.2638,1.2697,1.27,1.2662,1.2664,1.2666,1.2667,0,0,0,0,0,0,0,1.2426,1.2435,1.2523,1.2508,1.2511,1.2514,1.2521,1.256,1.2589,1.2553,1.2554,1.2562,1.2618,1.2634,1.264,1.2701,1.2662,1.2665,1.2668,1.2669,1.28,1.2801,0,0,0,0,0,0,1.2419,1.2432,1.2521,1.2525,1.2467,1.2516,1.2525,1.2545,1.2588,1.2594,1.2562,1.2562,1.2628,1.2635,1.2642,1.2697,1.2666,1.2669,1.2672,1.2798,1.28,1.2801,0,0,0,0,0,0,1.2417,1.2427,1.2518,1.2479,1.249,1.252,1.2543,1.2547,1.2563,1.2596,1.2601,1.2574,1.2628,1.2637,1.2681,1.2699,1.2671,1.2675,1.2797,1.2799,1.2801,1.2805,0,0,0,0,0,0,1.2413,1.2426,1.2442,1.2479,1.2492,1.2554,1.2544,1.2549,1.257,1.257,1.2607,1.2613,1.2628,1.2675,1.2684,1.2704,1.2677,1.2795,1.2798,1.28,1.2803,1.2806,1.2809,0,0,0,0,0,1.2409,1.2441,1.2443,1.2454,1.2513,1.2555,1.2563,1.2579,1.2571,1.2588,1.2609,1.2612,1.2696,1.2679,1.269,1.2711,1.2794,1.2797,1.28,1.2802,1.2806,1.2809,0,0,0,0,0,0,1.2406,1.2446,1.2449,1.2493,1.2521,1.2557,1.2579,1.2583,1.2614,1.2613,1.2632,1.264,1.2683,1.2702,1.2683,1.2756,1.2744,1.2749,1.2742,1.2746,1.2749,1.2744,1.2681,0,0,0,0,0,1.241,1.2441,1.2474,1.2511,1.2524,1.2549,1.2568,1.2578,1.2608,1.262,1.2644,1.2673,1.2706,1.2727,1.2759,1.2806,1.2815,1.2826,1.2829,1.2831,1.2835,1.2862,1.2867,1.281,1.281,1.281,0,0,1.242,1.2446,1.2464,1.2511,1.2533,1.2565,1.2559,1.2592,1.2617,1.2625,1.2667,1.2686,1.272,1.2766,1.2787,1.2782,1.2853,1.2834,1.2836,1.2839,1.2865,1.2871,1.2876,1.2812,1.2811,1.2811,0,0,1.2454,1.2476,1.2509,1.2532,1.2566,1.2582,1.259,1.2626,1.2639,1.2682,1.2689,1.2718,1.2774,1.2798,1.2818,1.2862,1.2866,1.2872,1.2888,1.2914,1.2919,1.2923,1.2939,1.2945,1.2876,1.2876,1.2876,0,1.2462,1.2509,1.2526,1.2559,1.258,1.2589,1.2623,1.2645,1.2688,1.2702,1.2696,1.2768,1.2791,1.2843,1.2853,1.2869,1.2879,1.2868,1.2917,1.2921,1.2925,1.2941,1.2947,1.2877,1.2877,1.2877,1.2877,0,1.2517,1.255,1.2573,1.2614,1.2638,1.2671,1.2694,1.2716,1.2724,1.2741,1.2786,1.2814,1.2853,1.2866,1.2874,1.2919,1.2915,1.2913,1.2902,1.2931,1.2946,1.2952,1.2878,1.2877,1.2877,1.2877,0,0,1.2551,1.2601,1.2609,1.2628,1.2667,1.2693,1.2728,1.2765,1.2784,1.2813,1.2843,1.2891,1.289,1.2912,1.2924,1.2946,1.298,1.2942,1.2943,1.2948,1.3032,1.3033,1.304,1.2983,1.2984,1.2985,1.3029,0,1.2589,1.265,1.2666,1.2719,1.275,1.2759,1.279,1.2817,1.2835,1.2864,1.2884,1.2918,1.2913,1.2926,1.2949,1.2971,1.2997,1.2968,1.3012,1.3013,1.3003,1.3048,1.3049,1.3089,1.3035,1.3036,1.3037,0,1.2642,1.2672,1.2728,1.2763,1.2777,1.2804,1.284,1.2868,1.29,1.2911,1.2936,1.2946,1.2983,1.297,1.3023,1.3003,1.3022,1.3035,1.3037,1.3042,1.3027,1.3054,1.3102,1.3108,1.3046,1.3046,1.3045,0,1.2661,1.2716,1.2756,1.2772,1.2815,1.2833,1.2852,1.2883,1.2905,1.2936,1.2951,1.2987,1.3006,1.3034,1.3054,1.3043,1.3105,1.3093,1.3116,1.3115,1.3128,1.3127,1.318,1.314,1.314,1.314,1.314,0,1.2702,1.2735,1.2765,1.279,1.2828,1.2847,1.2885,1.2904,1.2932,1.2961,1.2972,1.2999,1.3023,1.3054,1.307,1.3111,1.312,1.3131,1.3134,1.313,1.3128,1.3142,1.314,1.3142,1.3141,1.3141,1.3141,0,1.2729,1.275,1.2795,1.2832,1.2842,1.2868,1.29,1.2925,1.2943,1.298,1.299,1.3019,1.3056,1.3078,1.3126,1.3136,1.3182,1.3185,1.3171,1.3172,1.3193,1.3191,1.3257,1.3267,1.3221,1.3221,1.3222,0,1.2754,1.278,1.2819,1.2839,1.2858,1.2891,1.2913,1.2933,1.2956,1.2995,1.3015,1.3053,1.3084,1.3143,1.3169,1.3205,1.3209,1.323,1.3215,1.3209,1.321,1.3208,1.3211,1.3232,1.3233,1.3233,1.3233,0,1.2795,1.2805,1.2836,1.2871,1.2897,1.2926,1.2955,1.2971,1.2997,1.3022,1.306,1.3084,1.3132,1.317,1.3209,1.3229,1.3236,1.3238,1.3245,1.324,1.3231,1.3236,1.3178,1.3236,1.3236,1.3236,1.3235,1.3235,1.2822,1.2846,1.2878,1.2912,1.2936,1.2963,1.2988,1.301,1.3042,1.3082,1.3093,1.3132,1.3165,1.3218,1.3239,1.3271,1.3268,1.3278,1.328,1.3283,1.3283,1.3226,1.3278,1.3278,1.3278,1.3278,1.3278,0,1.2865,1.2886,1.2917,1.2957,1.2985,1.2989,1.3021,1.3044,1.3079,1.3108,1.3139,1.3183,1.322,1.3248,1.3287,1.3307,1.3311,1.3316,1.3315,1.3319,1.3284,1.3274,1.3312,1.3312,1.3312,1.3312,1.3312,1.3312,1.289,1.293,1.2944,1.2997,1.3018,1.3056,1.3075,1.31,1.3124,1.3172,1.3203,1.3221,1.3251,1.3291,1.3325,1.3333,1.3347,1.3351,1.3359,1.3326,1.3322,1.3318,1.3309,1.3354,1.3354,1.3392,1.3393,1.3393]},{"header":{"parameterUnit":"m.s-1","parameterCategory":1,"la1":30.2991,"la2":30.254,"lo1":-89.0895,"lo2":-89.0444,"dy":0.0017,"dx":0.0017,"nx":28,"ny":28,"refTime":"2025-01-15T03:00:00:Z","depth":0,"parameterNumber":3,"parameterNumberName":"V-component_of_WINDS"},"data":[0,0,0,0,0,0,0,0,0,0,0,0,0,0,0,0,0,0,0,0,0,0,0,0,0,0,0,0,0,0,0,0,0,0,0,0,0,0,0,0,0,0,0,0,0,0,0,0,0,0,0,0,0,0,0,0,0,0,-1.9342,-1.9342,0,-1.9362,-1.9362,-1.9362,-1.933,-1.9329,-1.9328,-1.9327,-1.9346,-1.9348,-1.9349,0,0,0,0,0,0,0,0,0,0,0,0,0,-1.9276,-1.9277,-1.9342,-1.9342,-1.9343,-1.9362,-1.9362,-1.9362,-1.933,-1.9329,-1.9327,-1.9326,-1.9346,-1.9347,-1.9349,0,0,0,0,0,0,0,0,0,0,0,0,0,-1.9301,-1.9278,-1.9342,-1.9329,-1.9328,-1.9362,-1.9362,-1.9362,-1.933,-1.9329,-1.9327,-1.9325,-1.9345,-1.9347,-1.9349,-1.9397,0,0,-1.9357,-1.9358,0,0,0,0,0,0,0,0,-1.93,-1.9304,-1.933,-1.933,-1.9329,-1.9342,-1.9346,-1.9374,-1.9331,-1.9329,-1.9327,-1.9325,-1.9346,-1.9348,-1.9355,-1.9398,-1.9399,-1.9357,-1.9358,-1.9359,-1.936,0,0,0,0,0,0,0,-1.9298,-1.9303,-1.935,-1.9331,-1.933,-1.9322,-1.9324,-1.9351,-1.9347,-1.9329,-1.9327,-1.933,-1.9345,-1.9353,-1.9356,-1.9399,-1.9357,-1.9359,-1.936,-1.9361,-1.9484,-1.9485,0,0,0,0,0,0,-1.9298,-1.9301,-1.9349,-1.935,-1.931,-1.9324,-1.9326,-1.9339,-1.9346,-1.9346,-1.9331,-1.9328,-1.935,-1.9353,-1.9356,-1.9414,-1.9359,-1.9361,-1.9363,-1.9482,-1.9484,-1.9486,0,0,0,0,0,0,-1.9297,-1.9303,-1.9348,-1.9325,-1.9331,-1.9327,-1.9342,-1.934,-1.9349,-1.9348,-1.9347,-1.934,-1.9349,-1.9353,-1.9388,-1.9414,-1.9362,-1.9365,-1.948,-1.9482,-1.9485,-1.9528,0,0,0,0,0,0,-1.9295,-1.9302,-1.932,-1.9326,-1.9332,-1.938,-1.9344,-1.9342,-1.9353,-1.9349,-1.9356,-1.9356,-1.9348,-1.9384,-1.939,-1.9416,-1.9366,-1.9477,-1.9481,-1.9484,-1.9525,-1.9532,-1.9539,0,0,0,0,0,-1.9293,-1.9331,-1.9321,-1.9327,-1.9354,-1.9381,-1.9385,-1.9375,-1.9355,-1.9373,-1.9373,-1.9355,-1.941,-1.9388,-1.9394,-1.9421,-1.9476,-1.948,-1.9484,-1.9521,-1.9531,-1.9539,0,0,0,0,0,0,-1.9328,-1.9332,-1.9321,-1.9362,-1.9372,-1.9376,-1.9398,-1.9385,-1.94,-1.9396,-1.9383,-1.9385,-1.9423,-1.9425,-1.9401,-1.9469,-1.9439,-1.9445,-1.9466,-1.9475,-1.9482,-1.9481,-1.9368,0,0,0,0,0,-1.9341,-1.9363,-1.9364,-1.9401,-1.9406,-1.9402,-1.9413,-1.9405,-1.9414,-1.9418,-1.942,-1.9429,-1.9449,-1.9462,-1.9479,-1.9525,-1.9526,-1.9546,-1.9554,-1.9559,-1.9565,-1.959,-1.96,-1.95,-1.95,-1.95,0,0,-1.9367,-1.9372,-1.9386,-1.9408,-1.9414,-1.9438,-1.9405,-1.943,-1.9447,-1.9421,-1.9455,-1.9457,-1.9467,-1.9507,-1.9525,-1.9511,-1.9593,-1.9565,-1.9569,-1.9572,-1.9596,-1.9605,-1.9613,-1.9503,-1.9502,-1.9502,0,0,-1.9427,-1.9432,-1.9464,-1.9472,-1.9482,-1.9479,-1.9487,-1.9493,-1.9493,-1.9527,-1.9508,-1.9528,-1.9561,-1.957,-1.9578,-1.9643,-1.9628,-1.9649,-1.9686,-1.9712,-1.9719,-1.9726,-1.9751,-1.9759,-1.9654,-1.9654,-1.9654,0,-1.9459,-1.9493,-1.9482,-1.9509,-1.952,-1.9498,-1.953,-1.9538,-1.9553,-1.9561,-1.9545,-1.9587,-1.9592,-1.9635,-1.9651,-1.9658,-1.9667,-1.9648,-1.9719,-1.9726,-1.9732,-1.9755,-1.9764,-1.9657,-1.9656,-1.9656,-1.9656,0,-1.9531,-1.9555,-1.958,-1.9596,-1.9609,-1.9639,-1.9633,-1.9648,-1.9639,-1.9638,-1.9673,-1.9678,-1.9697,-1.9706,-1.9697,-1.9749,-1.974,-1.9721,-1.9692,-1.9745,-1.9766,-1.9775,-1.966,-1.9659,-1.9659,-1.9658,0,0,-1.9614,-1.9625,-1.9634,-1.9642,-1.9653,-1.9671,-1.97,-1.9719,-1.9733,-1.9744,-1.9769,-1.9798,-1.9782,-1.9792,-1.9783,-1.9805,-1.9858,-1.9784,-1.9784,-1.9799,-1.9916,-1.9931,-1.9941,-1.9848,-1.9849,-1.9851,-1.9916,0,-1.9675,-1.9725,-1.9717,-1.9766,-1.9789,-1.9769,-1.9794,-1.9804,-1.9803,-1.9823,-1.9822,-1.9844,-1.982,-1.9826,-1.9847,-1.9847,-1.9881,-1.9842,-1.9871,-1.9872,-1.987,-1.9952,-1.9967,-2.0028,-1.9924,-1.9925,-1.9926,0,-1.9752,-1.9768,-1.982,-1.9828,-1.9837,-1.986,-1.9878,-1.9896,-1.9907,-1.9905,-1.9917,-1.9905,-1.9934,-1.9904,-1.9945,-1.9918,-1.993,-1.9932,-1.9934,-1.9937,-1.9903,-1.9958,-2.0048,-2.0057,-1.9939,-1.9938,-1.9937,0,-1.9809,-1.9843,-1.9879,-1.9886,-1.9896,-1.9913,-1.9918,-1.9927,-1.9939,-1.9954,-1.9963,-1.9981,-1.9991,-2.0006,-2.0,-1.9978,-2.0042,-2.0011,-2.0042,-2.0043,-2.0057,-2.0057,-2.0151,-2.0063,-2.0063,-2.0063,-2.0062,0,-1.9879,-1.9911,-1.9905,-1.9927,-1.9963,-1.9953,-1.9989,-1.9992,-2.0,-2.0023,-2.0006,-2.0027,-2.0017,-2.0038,-2.0033,-2.0068,-2.0073,-2.0073,-2.0071,-2.0075,-2.0075,-2.0083,-2.0079,-2.0065,-2.0065,-2.0064,-2.0064,0,-1.9948,-1.9945,-1.9983,-1.999,-1.9992,-2.0019,-2.0025,-2.0046,-2.0045,-2.0073,-2.0079,-2.0078,-2.0102,-2.0097,-2.0122,-2.0119,-2.0164,-2.0156,-2.0161,-2.0159,-2.0192,-2.0189,-2.0295,-2.0309,-2.0211,-2.0212,-2.0213,0,-1.9993,-2.0018,-2.0028,-2.0042,-2.0049,-2.0072,-2.0085,-2.0076,-2.0091,-2.0105,-2.0125,-2.0147,-2.0165,-2.0204,-2.0205,-2.0225,-2.0219,-2.0254,-2.0221,-2.0225,-2.0221,-2.022,-2.0223,-2.0261,-2.0262,-2.0263,-2.0264,0,-2.0074,-2.0072,-2.0091,-2.0111,-2.0127,-2.0142,-2.0155,-2.0168,-2.0161,-2.0178,-2.0202,-2.0216,-2.0243,-2.0266,-2.0285,-2.029,-2.0276,-2.0274,-2.0283,-2.0287,-2.0289,-2.029,-2.018,-2.0272,-2.0271,-2.027,-2.027,-2.027,-2.0134,-2.0156,-2.0167,-2.0189,-2.0199,-2.0212,-2.0232,-2.0234,-2.0255,-2.0277,-2.027,-2.0299,-2.0309,-2.0333,-2.0341,-2.0363,-2.035,-2.0362,-2.0365,-2.0368,-2.0373,-2.0285,-2.0366,-2.0366,-2.0366,-2.0365,-2.0365,0,-2.0215,-2.0221,-2.0242,-2.0262,-2.028,-2.0266,-2.028,-2.0297,-2.0322,-2.0333,-2.0351,-2.038,-2.0403,-2.0406,-2.0427,-2.0445,-2.0439,-2.0451,-2.045,-2.0452,-2.0383,-2.0374,-2.0455,-2.0455,-2.0455,-2.0455,-2.0455,-2.0455,-2.0259,-2.0296,-2.0295,-2.0336,-2.0342,-2.037,-2.038,-2.0392,-2.0402,-2.0435,-2.0454,-2.0456,-2.0464,-2.0486,-2.0507,-2.0507,-2.0516,-2.0531,-2.0529,-2.0465,-2.0456,-2.0448,-2.0439,-2.0532,-2.0532,-2.0596,-2.0596,-2.0597]}]]